Showing default

S80/T, 22078

Orbit data source: Space-Track

S80/T, 22078 is a payload satellite owned by CNES (FR) in LEO that was launched on Mon, 10 Aug 1992 UTC via an ARIANE 42P launch vehicle from the French Guiana (FRGUI). Payload-class satellites include a variety of spacecraft equipped with specific instruments for various scientific and technological missions. These include communications satellites like Starlink; space stations such as the ISS; scientific satellites like the Hubble; Earth observation satellites from companies like Planet Labs, Umbra, and HawkEye 360; GPS; miniature CubeSats for education and research; and military/defense satellites.

Loading next visibility...
Identifier
22078, 1992-052C
Orbit
LEO
Country
Flag of FRFR
Related business
Manufacturer
SSTL/MMST
Mission
Civil Communications
Bus & Motor
UOSAT, Unknown motor
Mass
50 kg wet, 50 kg dry
Launch date (UTC)
1992-08-10 (33 years ago)
Launch vehicle
ARIANE 42P
Launch site
French Guiana (FRGUI)
Object type
Payload
Rocket body
Debris
Shape & HBR
Hex Poly, 0.3 m
Radar Cross Section
0.140 m², Medium (>0.1 m² and < 1m²)

Expand to show TLE details & history
Last TLE update: 15 hours ago

TLE from 15 hours ago
0 S80/T
1 22078U 92052C   25306.47520580 -.00000053  00000-0  36682-4 0  9992
2 22078  66.0877  23.6071 0007942 341.6150  18.4580 12.86845522561063
Epoch: 2025-11-02T11:24Z
TLE epoch observation values (Epoch: 2025-11-02T11:24:17.781Z)
Latitude
-0.00005°
Longitude
170.54259°
Altitude
1,310.193 km
Speed
7.205 km/s
True Right ascension
01h 34m 25s
True Declination
0° 00' 00"
Sunlit
Object was in full shadow at epoch
Visualization orbit readout
Latitude
Unknown
Longitude
Unknown
Altitude
Unknown
Speed
Unknown
Apparent Right ascension
Unknown
Apparent Declination
Unknown
Sunlit
N/A
Visualization observer readout
Local Sidereal Time
22:30:54
Azimuth
Unknown
Elevation
Unknown
Doppler factor
Unknown
Orbital elements
Apogee altitude
1,318.73 km
Perigee altitude
1,306.514 km
Semi-major axis
7,690.759 km
Eccentricity
0.00079
Inclination
66.0877°
RAAN
23.6071°
Arg. of periapsis
341.615°
True anomaly
18.48684°
Mean anomaly
18.458°
Eccentric anomaly
18.47242°
Mean motion
3.21802 °/min
Orbital period
111.87 mins
BSTAR
0.000036682
Loading maneuver chart data...
Computing Atmospheric mass density...
Loading historical data...
Loading historical data...
Loading historical data...
Loading historical data...
Loading historical data...
Loading historical data...
Loading historical data...

Documentation

Showing up to 5 results
|